TimeMDT,TemperatureF,Dew PointF,Humidity,Sea Level PressureIn,VisibilityMPH,Wind Direction,Wind SpeedMPH,Gust SpeedMPH,PrecipitationIn,Events,Conditions,WindDirDegrees,DateUTC
12:00 AM,41.5,36.3,82,30.05,-9999.0,WSW,6.9,-,N/A,,Unknown,240,2013-09-20 06:00:00
1:00 AM,41.5,35.8,80,30.04,-9999.0,SW,6.9,-,N/A,,Unknown,230,2013-09-20 07:00:00
2:00 AM,39.0,35.6,88,30.04,-9999.0,SSW,3.5,-,N/A,,Unknown,210,2013-09-20 08:00:00
3:00 AM,37.6,34.7,89,30.04,-9999.0,SW,3.5,-,N/A,,Unknown,230,2013-09-20 09:00:00
4:00 AM,36.1,34.0,92,30.03,-9999.0,SW,3.5,-,N/A,,Unknown,220,2013-09-20 10:00:00
5:00 AM,36.0,33.8,92,30.03,-9999.0,SW,3.5,-,N/A,,Unknown,230,2013-09-20 11:00:00
6:00 AM,35.6,33.4,92,30.03,-9999.0,WSW,4.6,-,N/A,,Unknown,240,2013-09-20 12:00:00
7:00 AM,34.3,31.6,90,30.03,-9999.0,WSW,4.6,-,N/A,,Unknown,240,2013-09-20 13:00:00
8:00 AM,34.9,31.3,87,30.03,-9999.0,WSW,4.6,-,N/A,,Unknown,250,2013-09-20 14:00:00
9:00 AM,36.1,33.1,89,30.03,-9999.0,WSW,4.6,-,N/A,,Unknown,250,2013-09-20 15:00:00
10:00 AM,40.1,33.1,76,30.01,-9999.0,WSW,6.9,-,N/A,,Unknown,250,2013-09-20 16:00:00
11:00 AM,46.9,36.3,67,29.96,-9999.0,WSW,8.1,-,N/A,,Unknown,240,2013-09-20 17:00:00
12:00 PM,51.8,37.4,58,29.91,-9999.0,SW,10.4,17.3,N/A,,Unknown,230,2013-09-20 18:00:00
1:00 PM,58.1,36.9,45,29.86,-9999.0,SW,5.8,-,N/A,,Unknown,230,2013-09-20 19:00:00
2:00 PM,61.7,36.3,39,29.82,-9999.0,WSW,6.9,-,N/A,,Unknown,240,2013-09-20 20:00:00
3:00 PM,65.8,31.1,27,29.78,-9999.0,WSW,8.1,-,N/A,,Unknown,240,2013-09-20 21:00:00
4:00 PM,67.1,29.3,24,29.76,-9999.0,SW,8.1,-,N/A,,Unknown,230,2013-09-20 22:00:00
5:00 PM,67.1,27.9,23,29.75,-9999.0,WSW,5.8,-,N/A,,Unknown,250,2013-09-20 23:00:00
6:00 PM,66.2,30.7,27,29.74,-9999.0,WSW,5.8,-,N/A,,Unknown,240,2013-09-21 00:00:00
7:00 PM,61.5,28.8,29,29.74,-9999.0,West,3.5,-,N/A,,Unknown,280,2013-09-21 01:00:00
8:00 PM,53.1,35.2,51,29.77,-9999.0,West,2.3,-,N/A,,Unknown,270,2013-09-21 02:00:00
9:00 PM,47.7,36.7,66,29.77,-9999.0,WNW,2.3,-,N/A,,Unknown,290,2013-09-21 03:00:00
10:00 PM,44.8,34.9,68,29.77,-9999.0,NW,2.3,-,N/A,,Unknown,320,2013-09-21 04:00:00
11:00 PM,42.3,35.2,76,29.75,-9999.0,WNW,2.3,-,N/A,,Unknown,300,2013-09-21 05:00:00